Home > Time Zones > World Clock > Weather > Norway > Oslo > Past weeks

Flag for Norway Weather past 2 weeks in Oslo, Norway

Now
40 °F

Overcast.


Feels Like: 40 °F
Forecast: 18 / 33 °F
Wind: 2 mph from Southwest

Location: Oslo-Blindern

Current Time: Mar 3, 2015 at 1:53:26 PM

Latest Report: Mar 3, 2015 at 1:00 PM


Visibility: 44 mi

Pressure: 29.50 "Hg

Humidity: 74%

Dew point: 33 °F

Location of OsloLocation

Historic Weather in Oslo — Graph

°F

Oslo temperature yesterday

Maximum temperature yesterday: 43 °F (at 12:00 PM)
Minimum temperature yesterday: 36 °F (at 9:00 PM)
Average temperature yesterday: 38 °F

Past Weeks' High & Low Weather Summary

 TemperatureHumidityPressure
High44 °F (Feb 20, 1:00 PM)99% (Feb 22, 3:00 AM)30.36 "Hg (Feb 22, 3:00 AM)
Low27 °F (Feb 22, 8:00 AM)37% (Feb 22, 4:00 PM)28.97 "Hg (Feb 23, 2:00 PM)
Average36 °F89%29.55 "Hg
* Reported Feb 16 12:00 Noon — Mar 3 12:00 Noon, Oslo, Weather by CustomWeather, © 2015

Note: Actual official high and low records may vary slightly from our data, if they occured in-between our weather recording intervals... More about our weather records

Advertising

Oslo weather history for previous 24 hours

 ConditionsComfort  
Time TempWeatherWind HumidityBarometerVisibility
12:00 PM
Tue, Mar 3
38 °FChilly.2 mph82%29.47 "HgN/A
11:00 AM36 °FChilly.1 mph85%29.47 "HgN/A
10:00 AM35 °FOvercast.2 mph93%29.47 "Hg34 mi
9:00 AM34 °FChilly.2 mph94%29.44 "HgN/A
8:00 AM34 °FChilly.2 mph95%29.44 "HgN/A
7:00 AM34 °FPassing clouds.3 mph96%29.41 "Hg34 mi
6:00 AM35 °FChilly.2 mph97%29.41 "HgN/A
5:00 AM35 °FChilly.2 mph97%29.41 "HgN/A
4:00 AM36 °FFog.1 mph98%29.38 "Hg1 mi
2:00 AM36 °FChilly.1 mph98%29.35 "HgN/A
1:00 AM36 °FFog.1 mph97%29.35 "Hg2 mi
12:00 AM36 °FChilly.2 mph97%29.32 "HgN/A
11:00 PM
Mon, Mar 2
36 °FChilly.1 mph96%29.32 "HgN/A
9:00 PM36 °FChilly.2 mph95%29.29 "HgN/A
8:00 PM37 °FChilly.2 mph94%29.26 "HgN/A
7:00 PM38 °FRain. Low clouds.2 mph90%29.23 "Hg16 mi
6:00 PM38 °FChilly.3 mph87%29.23 "HgN/A
5:00 PM39 °FChilly.5 mph85%29.21 "HgN/A
4:00 PM40 °FOvercast.3 mph78%29.18 "Hg19 mi
3:00 PM41 °FQuite cool.5 mph77%29.15 "HgN/A
2:00 PM41 °FQuite cool.6 mph73%29.15 "HgN/A
1:00 PM41 °FOvercast.5 mph76%29.12 "Hg25 mi
Weather by CustomWeather, © 2015

See weather overviewHow to use our weather pages